,,Stat5,,Stat1,,Stat2,,Stat3,,Stat4,,Wind1,,Wind1,
time,status,PA1M_AVG,status,PR1M_SUM,status,RH1M_AVG,status,SR1M_AVG,status,TA1M_AVG,status,W1dAve1m,status,W1sAve1m,
2003-02-07, 00:00:00,VALID,917.765,VALID,0,VALID,87.5411,VALID,-0.0509425,VALID,19.8126,VALID,134,VALID,1.81928,
2003-02-07, 00:01:00,VALID,917.775,VALID,0,VALID,87.4304,VALID,-0.0849042,VALID,19.8581,VALID,123,VALID,0.814762,
2003-02-07, 00:02:00,VALID,917.735,VALID,0,VALID,87.4724,VALID,-0.101885,VALID,19.8611,VALID,143,VALID,1.37131,
2003-02-07, 00:03:00,VALID,917.766,VALID,0,VALID,87.667,VALID,-0.0849042,VALID,19.8549,VALID,145,VALID,0.871311,
2003-02-07, 00:04:00,VALID,917.746,VALID,0,VALID,87.8132,VALID,-0.0339617,VALID,19.8225,VALID,111,VALID,0.918888,
2003-02-07, 00:05:00,VALID,917.76,VALID,0,VALID,87.976,VALID,-0.0679233,VALID,19.7905,VALID,143,VALID,2.02545,
2003-02-07, 00:06:00,VALID,917.749,VALID,0,VALID,88.0662,VALID,-0.0679233,VALID,19.7651,VALID,138,VALID,1.60497,
2003-02-07, 00:07:00,VALID,917.742,VALID,0,VALID,88.1616,VALID,-0.0849042,VALID,19.742,VALID,150,VALID,1.78315,
2003-02-07, 00:08:00,VALID,917.733,VALID,0,VALID,87.9645,VALID,-0.0849042,VALID,19.729,VALID,124,VALID,1.41694,
2003-02-07, 00:09:00,VALID,917.729,VALID,0,VALID,87.7064,VALID,-0.0679233,VALID,19.7417,VALID,140,VALID,1.98237,
2003-02-07, 00:10:00,VALID,917.731,VALID,0,VALID,87.6097,VALID,-0.0679233,VALID,19.7875,VALID,146,VALID,1.71595,
2003-02-07, 00:11:00,VALID,917.738,VALID,0,VALID,87.7064,VALID,-0.0849042,VALID,19.8131,VALID,141,VALID,1.61932,
2003-02-07, 00:12:00,VALID,917.727,VALID,0,VALID,87.8602,VALID,-0.101885,VALID,19.8168,VALID,145,VALID,1.96601,
2003-02-07, 00:13:00,VALID,917.727,VALID,0,VALID,87.8272,VALID,-0.0849042,VALID,19.8136,VALID,144,VALID,2.08326,
2003-02-07, 00:14:00,VALID,917.721,VALID,0,VALID,87.7496,VALID,-0.0849042,VALID,19.8071,VALID,142,VALID,1.85547,
2003-02-07, 00:15:00,VALID,917.715,VALID,0,VALID,87.6123,VALID,-0.0849042,VALID,19.8158,VALID,138,VALID,1.51094,
2003-02-07, 00:16:00,VALID,917.717,VALID,0,VALID,87.6555,VALID,-0.101885,VALID,19.8387,VALID,148,VALID,1.24826,
2003-02-07, 00:17:00,VALID,917.705,VALID,0,VALID,87.8666,VALID,-0.101885,VALID,19.8287,VALID,149,VALID,1.66536,
2003-02-07, 00:18:00,VALID,917.686,VALID,0,VALID,87.8831,VALID,-0.101885,VALID,19.8166,VALID,113,VALID,1.38649,
2003-02-07, 00:19:00,VALID,917.69,VALID,0,VALID,88.0027,VALID,-0.0849042,VALID,19.7872,VALID,144,VALID,1.47411,
2003-02-07, 00:20:00,VALID,917.701,VALID,0,VALID,88.0116,VALID,-0.0509425,VALID,19.7703,VALID,148,VALID,2.1234,
2003-02-07, 00:21:00,VALID,917.69,VALID,0,VALID,87.8577,VALID,-0.0679233,VALID,19.7708,VALID,146,VALID,1.9584,
2003-02-07, 00:22:00,VALID,917.691,VALID,0,VALID,87.3656,VALID,-0.0169808,VALID,19.78,VALID,151,VALID,2.0183,
2003-02-07, 00:23:00,VALID,917.689,VALID,0,VALID,87.0477,VALID,-0.0169808,VALID,19.8295,VALID,140,VALID,2.05513,
2003-02-07, 00:24:00,VALID,917.677,VALID,0,VALID,86.8417,VALID,-0.0339617,VALID,19.8646,VALID,133,VALID,1.54788,
2003-02-07, 00:25:00,VALID,917.678,VALID,0,VALID,86.7883,VALID,-0.0509425,VALID,19.9098,VALID,141,VALID,1.75379,
2003-02-07, 00:26:00,VALID,917.632,VALID,0,VALID,86.7438,VALID,-0.0339617,VALID,19.9324,VALID,149,VALID,1.74978,
2003-02-07, 00:27:00,VALID,917.629,VALID,0,VALID,86.7438,VALID,-0.0339617,VALID,19.9424,VALID,162,VALID,1.31846,
2003-02-07, 00:28:00,VALID,917.633,VALID,0,VALID,86.8442,VALID,-0.0169808,VALID,19.9426,VALID,142,VALID,1.33398,
2003-02-07, 00:29:00,VALID,917.627,VALID,0,VALID,86.843,VALID,-0.0509425,VALID,19.9193,VALID,149,VALID,1.7084,
2003-02-07, 00:30:00,VALID,917.619,VALID,0,VALID,86.8557,VALID,-0.0509425,VALID,19.9125,VALID,145,VALID,1.76649,
2003-02-07, 00:31:00,VALID,917.627,VALID,0,VALID,86.8213,VALID,-0.0339617,VALID,19.9195,VALID,142,VALID,1.50977,
2003-02-07, 00:32:00,VALID,917.627,VALID,0,VALID,86.8252,VALID,-0.0339617,VALID,19.9225,VALID,122,VALID,1.38787,
2003-02-07, 00:33:00,VALID,917.621,VALID,0,VALID,86.9549,VALID,-0.0169808,VALID,19.9188,VALID,142,VALID,1.28437,
2003-02-07, 00:34:00,VALID,917.62,VALID,0,VALID,86.8519,VALID,-0.0509425,VALID,19.9096,VALID,130,VALID,1.34836,
2003-02-07, 00:35:00,VALID,917.627,VALID,0,VALID,86.96,VALID,-0.0169808,VALID,19.9165,VALID,104,VALID,1.46263,
2003-02-07, 00:36:00,VALID,917.623,VALID,0,VALID,86.8709,VALID,-0.0169808,VALID,19.9096,VALID,131,VALID,1.40029,
2003-02-07, 00:37:00,VALID,917.638,VALID,0,VALID,87.0261,VALID,-0.0339617,VALID,19.9195,VALID,138,VALID,0.91808,
2003-02-07, 00:38:00,VALID,917.651,VALID,0,VALID,87.0248,VALID,-0.0339617,VALID,19.9128,VALID,136,VALID,1.1879,
2003-02-07, 00:39:00,VALID,917.644,VALID,0,VALID,87.049,VALID,-0.0339617,VALID,19.9163,VALID,115,VALID,1.37358,
2003-02-07, 00:40:00,VALID,917.647,VALID,0,VALID,87.1494,VALID,-0.0679233,VALID,19.9066,VALID,96,VALID,1.12066,
2003-02-07, 00:41:00,VALID,917.628,VALID,0,VALID,87.1609,VALID,-0.0509425,VALID,19.9098,VALID,139,VALID,1.22841,
2003-02-07, 00:42:00,VALID,917.621,VALID,0,VALID,87.0439,VALID,-0.0509425,VALID,19.9068,VALID,141,VALID,1.275,
2003-02-07, 00:43:00,VALID,917.613,VALID,0,VALID,87.1329,VALID,-0.0339617,VALID,19.916,VALID,143,VALID,1.33164,
2003-02-07, 00:44:00,VALID,917.619,VALID,0,VALID,87.0668,VALID,0,VALID,19.9093,VALID,157,VALID,0.975694,
2003-02-07, 00:45:00,VALID,917.609,VALID,0,VALID,87.1253,VALID,-0.0339617,VALID,19.9195,VALID,123,VALID,2.10113,
2003-02-07, 00:46:00,VALID,917.618,VALID,0,VALID,87.1469,VALID,-0.0339617,VALID,19.913,VALID,144,VALID,1.42188,
2003-02-07, 00:47:00,VALID,917.615,VALID,0,VALID,87.2397,VALID,-0.0339617,VALID,19.923,VALID,138,VALID,1.17143,
2003-02-07, 00:48:00,VALID,917.603,VALID,0,VALID,87.3096,VALID,-0.0339617,VALID,19.916,VALID,144,VALID,1.26322,
2003-02-07, 00:49:00,VALID,917.592,VALID,0,VALID,87.3681,VALID,-0.0169808,VALID,19.9031,VALID,141,VALID,1.60051,
2003-02-07, 00:50:00,VALID,917.576,VALID,0,VALID,87.3224,VALID,-0.0339617,VALID,19.8966,VALID,145,VALID,1.41345,
2003-02-07, 00:51:00,VALID,917.579,VALID,0,VALID,87.419,VALID,0,VALID,19.8996,VALID,135,VALID,1.15937,
2003-02-07, 00:52:00,VALID,917.563,VALID,0,VALID,87.5589,VALID,0,VALID,19.8996,VALID,139,VALID,1.42228,
2003-02-07, 00:53:00,VALID,917.545,VALID,0,VALID,87.4533,VALID,-0.0509425,VALID,19.8929,VALID,150,VALID,1.64015,
2003-02-07, 00:54:00,VALID,917.529,VALID,0,VALID,87.6581,VALID,0,VALID,19.8931,VALID,140,VALID,1.52561,
2003-02-07, 00:55:00,VALID,917.514,VALID,0,VALID,87.522,VALID,-0.0339617,VALID,19.877,VALID,132,VALID,2.17455,
2003-02-07, 00:56:00,VALID,917.524,VALID,0,VALID,87.625,VALID,0,VALID,19.8802,VALID,153,VALID,1.6248,
2003-02-07, 00:57:00,VALID,917.516,VALID,0,VALID,87.6339,VALID,-0.0169808,VALID,19.8772,VALID,116,VALID,1.05664,
2003-02-07, 00:58:00,VALID,917.565,VALID,0,VALID,87.4851,VALID,-0.0169808,VALID,19.8735,VALID,145,VALID,1.75304,
2003-02-07, 00:59:00,VALID,917.554,VALID,0,VALID,87.4978,VALID,-0.0339617,VALID,19.8802,VALID,139,VALID,2.03798,
2003-02-07, 01:00:00,VALID,917.548,VALID,0,VALID,87.7623,VALID,-0.0339617,VALID,19.8864,VALID,131,VALID,1.07858,
2003-02-07, 01:01:00,VALID,917.561,VALID,0,VALID,87.8526,VALID,0,VALID,19.8872,VALID,142,VALID,1.61317,
2003-02-07, 01:02:00,VALID,917.547,VALID,0,VALID,87.7649,VALID,-0.0339617,VALID,19.8608,VALID,148,VALID,1.74499,
2003-02-07, 01:03:00,VALID,917.539,VALID,0,VALID,87.8094,VALID,0,VALID,19.8514,VALID,128,VALID,1.25845,
2003-02-07, 01:04:00,VALID,917.512,VALID,0,VALID,87.5449,VALID,-0.0169808,VALID,19.8414,VALID,145,VALID,2.3639,
2003-02-07, 01:05:00,VALID,917.481,VALID,0,VALID,87.5131,VALID,0,VALID,19.8638,VALID,144,VALID,1.64107,
2003-02-07, 01:06:00,VALID,917.484,VALID,0,VALID,87.4025,VALID,-0.0169808,VALID,19.8638,VALID,129,VALID,1.91466,
2003-02-07, 01:07:00,VALID,917.445,VALID,0,VALID,87.6377,VALID,-0.0169808,VALID,19.8643,VALID,81,VALID,1.25947,
2003-02-07, 01:08:00,VALID,917.428,VALID,0,VALID,87.3643,VALID,-0.0339617,VALID,19.8414,VALID,126,VALID,1.47244,
2003-02-07, 01:09:00,VALID,917.404,VALID,0,VALID,87.3719,VALID,-0.0679233,VALID,19.8352,VALID,109,VALID,1.40769,
2003-02-07, 01:10:00,VALID,917.382,VALID,0,VALID,87.1075,VALID,-0.0169808,VALID,19.8414,VALID,112,VALID,1.82363,
2003-02-07, 01:11:00,VALID,917.367,VALID,0,VALID,87.302,VALID,-0.0169808,VALID,19.8382,VALID,102,VALID,1.32637,
2003-02-07, 01:12:00,VALID,917.379,VALID,0,VALID,87.1659,VALID,-0.0169808,VALID,19.8225,VALID,122,VALID,1.49653,
2003-02-07, 01:13:00,VALID,917.344,VALID,0,VALID,87.049,VALID,0,VALID,19.8156,VALID,114,VALID,1.72287,
2003-02-07, 01:14:00,VALID,917.355,VALID,0,VALID,87.1647,VALID,0,VALID,19.8253,VALID,124,VALID,1.57307,
2003-02-07, 01:15:00,VALID,917.344,VALID,0,VALID,87.1494,VALID,-0.0169808,VALID,19.8084,VALID,121,VALID,1.20871,
2003-02-07, 01:16:00,VALID,917.324,VALID,0,VALID,86.9002,VALID,-0.0339617,VALID,19.8123,VALID,137,VALID,1.5643,
2003-02-07, 01:17:00,VALID,917.304,VALID,0,VALID,86.7412,VALID,0,VALID,19.8153,VALID,140,VALID,1.44658,
2003-02-07, 01:18:00,VALID,917.276,VALID,0,VALID,87.0197,VALID,0,VALID,19.835,VALID,100,VALID,1.30078,
2003-02-07, 01:19:00,VALID,917.279,VALID,0,VALID,86.9917,VALID,-0.0339617,VALID,19.7728,VALID,116,VALID,1.55625,
2003-02-07, 01:20:00,VALID,917.267,VALID,0,VALID,86.7527,VALID,-0.0169808,VALID,19.7701,VALID,138,VALID,1.3752,
2003-02-07, 01:21:00,VALID,917.292,VALID,0,VALID,86.8391,VALID,-0.0169808,VALID,19.7666,VALID,120,VALID,1.41572,
2003-02-07, 01:22:00,VALID,917.289,VALID,0,VALID,87.0045,VALID,-0.0509425,VALID,19.7544,VALID,113,VALID,1.28906,
2003-02-07, 01:23:00,VALID,917.304,VALID,0,VALID,87.063,VALID,-0.0509425,VALID,19.7318,VALID,125,VALID,1.10218,
2003-02-07, 01:24:00,VALID,917.297,VALID,0,VALID,87.1888,VALID,-0.0169808,VALID,19.6994,VALID,110,VALID,0.805859,
2003-02-07, 01:25:00,VALID,917.291,VALID,0,VALID,87.2448,VALID,-0.0339617,VALID,19.6733,VALID,131,VALID,1.17441,
2003-02-07, 01:26:00,VALID,917.302,VALID,0,VALID,87.0757,VALID,-0.0169808,VALID,19.6539,VALID,134,VALID,1.02734,
2003-02-07, 01:27:00,VALID,917.294,VALID,0,VALID,87.0184,VALID,-0.0509425,VALID,19.6542,VALID,125,VALID,0.867405,
2003-02-07, 01:28:00,VALID,917.298,VALID,0,VALID,87.0401,VALID,-0.0169808,VALID,19.6572,VALID,117,VALID,1.24862,
2003-02-07, 01:29:00,VALID,917.318,VALID,0,VALID,86.9345,VALID,-0.0339617,VALID,19.6572,VALID,145,VALID,1.07567,
2003-02-07, 01:30:00,VALID,917.328,VALID,0,VALID,87.0261,VALID,0,VALID,19.6709,VALID,135,VALID,1.25641,
2003-02-07, 01:31:00,VALID,917.298,VALID,0,VALID,87.0858,VALID,-0.0509425,VALID,19.6706,VALID,130,VALID,1.09101,
2003-02-07, 01:32:00,VALID,917.323,VALID,0,VALID,87.035,VALID,-0.0509425,VALID,19.6574,VALID,130,VALID,1.92311,
2003-02-07, 01:33:00,VALID,917.318,VALID,0,VALID,86.7222,VALID,-0.0339617,VALID,19.6671,VALID,132,VALID,1.81094,
2003-02-07, 01:34:00,VALID,917.313,VALID,0,VALID,86.3661,VALID,-0.0339617,VALID,19.7295,VALID,119,VALID,1.30929,
2003-02-07, 01:35:00,VALID,917.306,VALID,0,VALID,86.5009,VALID,0,VALID,19.7479,VALID,88,VALID,1.26728,
2003-02-07, 01:36:00,VALID,917.299,VALID,0,VALID,86.6014,VALID,0,VALID,19.7452,VALID,84,VALID,1.66536,
2003-02-07, 01:37:00,VALID,917.304,VALID,0,VALID,86.6433,VALID,-0.0169808,VALID,19.728,VALID,112,VALID,1.04667,
2003-02-07, 01:38:00,VALID,917.275,VALID,0,VALID,86.8163,VALID,-0.0509425,VALID,19.739,VALID,125,VALID,0.898047,
2003-02-07, 01:39:00,VALID,917.279,VALID,0,VALID,87.0668,VALID,-0.0339617,VALID,19.6995,VALID,131,VALID,1.18691,
2003-02-07, 01:40:00,VALID,917.266,VALID,0,VALID,87.2117,VALID,-0.0339617,VALID,19.6741,VALID,133,VALID,1.27496,
2003-02-07, 01:41:00,VALID,917.255,VALID,0,VALID,87.2651,VALID,-0.0509425,VALID,19.6711,VALID,143,VALID,1.50738,
2003-02-07, 01:42:00,VALID,917.259,VALID,0,VALID,87.4152,VALID,-0.0339617,VALID,19.6515,VALID,127,VALID,0.985524,
2003-02-07, 01:43:00,VALID,917.262,VALID,0,VALID,87.6428,VALID,-0.0679233,VALID,19.6258,VALID,119,VALID,1.12902,
2003-02-07, 01:44:00,VALID,917.26,VALID,0,VALID,87.9416,VALID,-0.0509425,VALID,19.5709,VALID,121,VALID,1.3754,
2003-02-07, 01:45:00,VALID,917.254,VALID,0,VALID,87.9785,VALID,-0.0679233,VALID,19.5383,VALID,139,VALID,1.42124,
2003-02-07, 01:46:00,VALID,917.257,VALID,0,VALID,87.8959,VALID,-0.0509425,VALID,19.5346,VALID,112,VALID,1.1803,
2003-02-07, 01:47:00,VALID,917.254,VALID,0,VALID,87.9035,VALID,-0.0339617,VALID,19.5416,VALID,143,VALID,1.8567,
2003-02-07, 01:48:00,VALID,917.25,VALID,0,VALID,87.9416,VALID,-0.0339617,VALID,19.5418,VALID,125,VALID,1.29667,
2003-02-07, 01:49:00,VALID,917.254,VALID,0,VALID,88.1095,VALID,-0.0509425,VALID,19.5291,VALID,124,VALID,1.29948,
2003-02-07, 01:50:00,VALID,917.249,VALID,0,VALID,88.2824,VALID,0.0339617,VALID,19.4986,VALID,121,VALID,1.25608,
2003-02-07, 01:51:00,VALID,917.244,VALID,0,VALID,88.388,VALID,0.0509425,VALID,19.4657,VALID,137,VALID,1.04112,
2003-02-07, 01:52:00,VALID,917.249,VALID,0,VALID,88.4935,VALID,0.0679233,VALID,19.4493,VALID,134,VALID,1.20156,
2003-02-07, 01:53:00,VALID,917.244,VALID,0,VALID,88.5304,VALID,0.0679233,VALID,19.4369,VALID,124,VALID,1.04844,
2003-02-07, 01:54:00,VALID,917.239,VALID,0,VALID,88.6372,VALID,0.0849042,VALID,19.4272,VALID,122,VALID,1.17405,
2003-02-07, 01:55:00,VALID,917.237,VALID,0,VALID,88.7593,VALID,0.0679233,VALID,19.4108,VALID,103,VALID,1.20074,
2003-02-07, 01:56:00,VALID,917.227,VALID,0,VALID,88.9309,VALID,0.101885,VALID,19.3942,VALID,111,VALID,1.47289,
2003-02-07, 01:57:00,VALID,917.223,VALID,0,VALID,88.9665,VALID,0.0509425,VALID,19.3914,VALID,115,VALID,1.60022,
2003-02-07, 01:58:00,VALID,917.217,VALID,0,VALID,88.9602,VALID,0.0679233,VALID,19.3889,VALID,129,VALID,0.818109,
2003-02-07, 01:59:00,VALID,917.216,VALID,0,VALID,89.2094,VALID,0.0679233,VALID,19.3628,VALID,142,VALID,1.42969,
2003-02-07, 02:00:00,VALID,917.208,VALID,0,VALID,89.39,VALID,0.0509425,VALID,19.33,VALID,142,VALID,1.44942,
2003-02-07, 02:01:00,VALID,917.197,VALID,0,VALID,89.4688,VALID,0.0339617,VALID,19.3079,VALID,143,VALID,1.76451,
2003-02-07, 02:02:00,VALID,917.213,VALID,0,VALID,89.5489,VALID,0.0509425,VALID,19.285,VALID,131,VALID,1.28205,
2003-02-07, 02:03:00,VALID,917.206,VALID,0,VALID,89.7193,VALID,0.0679233,VALID,19.2589,VALID,125,VALID,1.61127,
2003-02-07, 02:04:00,VALID,917.219,VALID,0,VALID,89.7677,VALID,0.0339617,VALID,19.2562,VALID,119,VALID,1.31228,
2003-02-07, 02:05:00,VALID,917.213,VALID,0,VALID,89.8096,VALID,0.0849042,VALID,19.2395,VALID,120,VALID,1.08635,
2003-02-07, 02:06:00,VALID,917.212,VALID,0,VALID,89.9558,VALID,0.0679233,VALID,19.2268,VALID,120,VALID,1.31406,
2003-02-07, 02:07:00,VALID,917.185,VALID,0,VALID,90.0576,VALID,0.0849042,VALID,19.2109,VALID,126,VALID,1.01777,
2003-02-07, 02:08:00,VALID,917.19,VALID,0,VALID,90.2509,VALID,0.0849042,VALID,19.1851,VALID,122,VALID,1.17296,
2003-02-07, 02:09:00,VALID,917.174,VALID,0,VALID,90.2776,VALID,0.101885,VALID,19.1749,VALID,125,VALID,1.07921,
2003-02-07, 02:10:00,VALID,917.158,VALID,0,VALID,90.2064,VALID,0.0679233,VALID,19.1784,VALID,106,VALID,1.25483,
2003-02-07, 02:11:00,VALID,917.155,VALID,0,VALID,90.2623,VALID,0.0849042,VALID,19.1649,VALID,103,VALID,1.49799,
2003-02-07, 02:12:00,VALID,917.133,VALID,0,VALID,90.2064,VALID,0.0849042,VALID,19.1687,VALID,112,VALID,1.51482,
2003-02-07, 02:13:00,VALID,917.122,VALID,0,VALID,90.1135,VALID,0.101885,VALID,19.1821,VALID,123,VALID,1.29033,
2003-02-07, 02:14:00,VALID,917.114,VALID,0,VALID,90.1644,VALID,0.0849042,VALID,19.1756,VALID,119,VALID,1.22389,
2003-02-07, 02:15:00,VALID,917.092,VALID,0,VALID,90.0767,VALID,0.0849042,VALID,19.1689,VALID,129,VALID,1.06049,
2003-02-07, 02:16:00,VALID,917.071,VALID,0,VALID,90.0347,VALID,0.0849042,VALID,19.1823,VALID,139,VALID,0.92508,
2003-02-07, 02:17:00,VALID,917.073,VALID,0,VALID,90.0703,VALID,0.0849042,VALID,19.1786,VALID,128,VALID,1.0322,
2003-02-07, 02:18:00,VALID,917.069,VALID,0,VALID,90.0843,VALID,0.101885,VALID,19.1682,VALID,129,VALID,1.35048,
2003-02-07, 02:19:00,VALID,917.04,VALID,0,VALID,89.9495,VALID,0.101885,VALID,19.191,VALID,116,VALID,1.19531,
2003-02-07, 02:20:00,VALID,917.028,VALID,0,VALID,89.966,VALID,0.0169808,VALID,19.2091,VALID,117,VALID,0.976758,
2003-02-07, 02:21:00,VALID,917.004,VALID,0,VALID,89.9775,VALID,0,VALID,19.1895,VALID,121,VALID,1.6773,
2003-02-07, 02:22:00,VALID,916.981,VALID,0,VALID,89.9851,VALID,-0.0169808,VALID,19.1962,VALID,118,VALID,1.4605,
2003-02-07, 02:23:00,VALID,916.951,VALID,0,VALID,90.0118,VALID,0,VALID,19.1927,VALID,136,VALID,0.980252,
2003-02-07, 02:24:00,VALID,916.94,VALID,0,VALID,90.1796,VALID,0,VALID,19.1997,VALID,146,VALID,1.46071,
2003-02-07, 02:25:00,VALID,916.919,VALID,0,VALID,90.2814,VALID,0,VALID,19.1932,VALID,139,VALID,1.07991,
2003-02-07, 02:26:00,VALID,916.938,VALID,0,VALID,90.3246,VALID,-0.0339617,VALID,19.1602,VALID,107,VALID,0.961538,
2003-02-07, 02:27:00,VALID,916.93,VALID,0,VALID,90.4289,VALID,-0.0339617,VALID,19.1482,VALID,91,VALID,0.950591,
2003-02-07, 02:28:00,VALID,916.93,VALID,0,VALID,90.6743,VALID,-0.0339617,VALID,19.0963,VALID,91,VALID,0.655839,
2003-02-07, 02:29:00,VALID,916.928,VALID,0,VALID,90.9668,VALID,0,VALID,19.0769,VALID,137,VALID,0.888616,
2003-02-07, 02:30:00,VALID,916.918,VALID,0,VALID,91.1003,VALID,-0.0509425,VALID,19.054,VALID,116,VALID,0.964744,
2003-02-07, 02:31:00,VALID,916.92,VALID,0,VALID,91.3127,VALID,-0.0169808,VALID,19.0515,VALID,145,VALID,1.19744,
2003-02-07, 02:32:00,VALID,916.906,VALID,0,VALID,91.4118,VALID,-0.0169808,VALID,19.0284,VALID,156,VALID,1.69683,
2003-02-07, 02:33:00,VALID,916.882,VALID,0,VALID,91.4207,VALID,-0.0169808,VALID,19.048,VALID,146,VALID,2.03701,
2003-02-07, 02:34:00,VALID,916.887,VALID,0,VALID,90.9973,VALID,0,VALID,19.0505,VALID,85,VALID,0.734766,
2003-02-07, 02:35:00,VALID,916.889,VALID,0,VALID,91.0558,VALID,0,VALID,19.0251,VALID,90,VALID,1.0125,
2003-02-07, 02:36:00,VALID,916.886,VALID,0,VALID,91.3813,VALID,0,VALID,18.9991,VALID,120,VALID,1.51324,
2003-02-07, 02:37:00,VALID,916.875,VALID,0,VALID,91.2618,VALID,0,VALID,19.0055,VALID,121,VALID,0.921441,
2003-02-07, 02:38:00,VALID,916.888,VALID,0,VALID,91.3368,VALID,-0.0339617,VALID,19.009,VALID,123,VALID,1.0432,
2003-02-07, 02:39:00,VALID,916.872,VALID,0,VALID,91.3622,VALID,-0.0169808,VALID,19.012,VALID,113,VALID,1.05781,
2003-02-07, 02:40:00,VALID,916.857,VALID,0,VALID,91.3254,VALID,-0.0169808,VALID,19.0219,VALID,128,VALID,0.846955,
2003-02-07, 02:41:00,VALID,916.844,VALID,0,VALID,91.2631,VALID,0,VALID,19.0319,VALID,127,VALID,0.837838,
2003-02-07, 02:42:00,VALID,916.839,VALID,0,VALID,91.3775,VALID,-0.0339617,VALID,19.0184,VALID,118,VALID,1.19963,
2003-02-07, 02:43:00,VALID,916.829,VALID,0,VALID,91.3228,VALID,-0.0169808,VALID,19.0055,VALID,135,VALID,1.50402,
2003-02-07, 02:44:00,VALID,916.83,VALID,0,VALID,91.2465,VALID,-0.0169808,VALID,19.0028,VALID,133,VALID,1.83854,
2003-02-07, 02:45:00,VALID,916.821,VALID,0,VALID,91.066,VALID,0,VALID,19.0316,VALID,146,VALID,1.067,
2003-02-07, 02:46:00,VALID,916.804,VALID,0,VALID,91.0621,VALID,0,VALID,19.0378,VALID,132,VALID,1.25716,
2003-02-07, 02:47:00,VALID,916.782,VALID,0,VALID,91.1384,VALID,0,VALID,19.0314,VALID,130,VALID,1.04749,
2003-02-07, 02:48:00,VALID,916.781,VALID,0,VALID,91.1868,VALID,0,VALID,19.0314,VALID,128,VALID,1.12988,
2003-02-07, 02:49:00,VALID,916.77,VALID,0,VALID,91.2694,VALID,-0.0169808,VALID,19.0286,VALID,128,VALID,1.25977,
2003-02-07, 02:50:00,VALID,916.751,VALID,0,VALID,91.2249,VALID,-0.0169808,VALID,19.0184,VALID,122,VALID,1.41515,
2003-02-07, 02:51:00,VALID,916.743,VALID,0,VALID,90.9375,VALID,-0.0169808,VALID,19.0351,VALID,140,VALID,1.74957,
2003-02-07, 02:52:00,VALID,916.736,VALID,0,VALID,90.7684,VALID,-0.0169808,VALID,19.0607,VALID,135,VALID,1.56503,
2003-02-07, 02:53:00,VALID,916.736,VALID,0,VALID,90.6133,VALID,0,VALID,19.096,VALID,134,VALID,1.05558,
2003-02-07, 02:54:00,VALID,916.729,VALID,0,VALID,90.6463,VALID,0,VALID,19.1094,VALID,141,VALID,1.1248,
2003-02-07, 02:55:00,VALID,916.718,VALID,0,VALID,90.7951,VALID,0,VALID,19.1094,VALID,137,VALID,1.50823,
2003-02-07, 02:56:00,VALID,916.707,VALID,0,VALID,90.893,VALID,-0.0169808,VALID,19.1131,VALID,131,VALID,1.62233,
2003-02-07, 02:57:00,VALID,916.7,VALID,0,VALID,90.9261,VALID,-0.0509425,VALID,19.0928,VALID,121,VALID,1.56897,
2003-02-07, 02:58:00,VALID,916.681,VALID,0,VALID,90.8422,VALID,-0.0339617,VALID,19.0963,VALID,125,VALID,1.27584,
2003-02-07, 02:59:00,VALID,916.671,VALID,0,VALID,90.8612,VALID,-0.0339617,VALID,19.1127,VALID,122,VALID,1.0303,
2003-02-07, 03:00:00,VALID,916.671,VALID,0,VALID,91.0418,VALID,0,VALID,19.0933,VALID,125,VALID,1.18316,
2003-02-07, 03:01:00,VALID,916.664,VALID,0,VALID,91.3915,VALID,-0.0509425,VALID,19.0642,VALID,132,VALID,1.47081,
2003-02-07, 03:02:00,VALID,916.651,VALID,0,VALID,91.497,VALID,0,VALID,19.0443,VALID,121,VALID,1.33184,
2003-02-07, 03:03:00,VALID,916.643,VALID,0,VALID,91.5415,VALID,0,VALID,19.0219,VALID,120,VALID,1.17949,
2003-02-07, 03:04:00,VALID,916.642,VALID,0,VALID,91.7488,VALID,0,VALID,18.9926,VALID,132,VALID,1.12174,
2003-02-07, 03:05:00,VALID,916.621,VALID,0,VALID,91.7819,VALID,0,VALID,18.9762,VALID,138,VALID,1.31424,
2003-02-07, 03:06:00,VALID,916.62,VALID,0,VALID,91.773,VALID,0.0339617,VALID,18.9822,VALID,134,VALID,1.83364,
2003-02-07, 03:07:00,VALID,916.603,VALID,0,VALID,91.6229,VALID,0.0339617,VALID,19.015,VALID,125,VALID,0.979911,
2003-02-07, 03:08:00,VALID,916.614,VALID,0,VALID,91.5632,VALID,0.0169808,VALID,19.0251,VALID,110,VALID,1.17588,
2003-02-07, 03:09:00,VALID,916.602,VALID,0,VALID,91.7183,VALID,0,VALID,19.008,VALID,119,VALID,1.42694,
2003-02-07, 03:10:00,VALID,916.58,VALID,0,VALID,91.8823,VALID,0.0169808,VALID,19.0085,VALID,126,VALID,1.75247,
2003-02-07, 03:11:00,VALID,916.578,VALID,0,VALID,91.834,VALID,0.0169808,VALID,19.0078,VALID,125,VALID,1.49152,
2003-02-07, 03:12:00,VALID,916.586,VALID,0,VALID,91.8544,VALID,0.0169808,VALID,19.0113,VALID,125,VALID,1.35757,
2003-02-07, 03:13:00,VALID,916.566,VALID,0,VALID,91.8175,VALID,0.0339617,VALID,19.0341,VALID,128,VALID,1.55137,
2003-02-07, 03:14:00,VALID,916.548,VALID,0,VALID,91.642,VALID,0.0169808,VALID,19.0473,VALID,125,VALID,1.43989,
2003-02-07, 03:15:00,VALID,916.549,VALID,0,VALID,91.4093,VALID,0,VALID,19.0692,VALID,126,VALID,1.40913,
2003-02-07, 03:16:00,VALID,916.543,VALID,0,VALID,91.3444,VALID,0.0339617,VALID,19.0992,VALID,131,VALID,1.41289,
2003-02-07, 03:17:00,VALID,916.559,VALID,0,VALID,91.4385,VALID,0,VALID,19.1055,VALID,136,VALID,1.49863,
2003-02-07, 03:18:00,VALID,916.565,VALID,0,VALID,91.3228,VALID,0.0169808,VALID,19.1119,VALID,135,VALID,1.85417,
2003-02-07, 03:19:00,VALID,916.583,VALID,0,VALID,91.174,VALID,0.0169808,VALID,19.1373,VALID,130,VALID,1.41276,
2003-02-07, 03:20:00,VALID,916.559,VALID,0,VALID,91.1512,VALID,0,VALID,19.1964,VALID,131,VALID,1.34995,
2003-02-07, 03:21:00,VALID,916.525,VALID,0,VALID,91.0316,VALID,0.0339617,VALID,19.2089,VALID,109,VALID,1.34799,
2003-02-07, 03:22:00,VALID,916.527,VALID,0,VALID,91.1486,VALID,0.0339617,VALID,19.199,VALID,114,VALID,1.53185,
2003-02-07, 03:23:00,VALID,916.499,VALID,0,VALID,91.1232,VALID,0,VALID,19.2059,VALID,119,VALID,1.38704,
2003-02-07, 03:24:00,VALID,916.481,VALID,0,VALID,91.1728,VALID,0,VALID,19.199,VALID,122,VALID,1.4852,
2003-02-07, 03:25:00,VALID,916.461,VALID,0,VALID,91.3012,VALID,0,VALID,19.183,VALID,115,VALID,1.52835,
2003-02-07, 03:26:00,VALID,916.438,VALID,0,VALID,91.4169,VALID,0,VALID,19.1701,VALID,128,VALID,1.36859,
2003-02-07, 03:27:00,VALID,916.405,VALID,0,VALID,91.3813,VALID,0.0169808,VALID,19.1736,VALID,110,VALID,1.34138,
2003-02-07, 03:28:00,VALID,916.383,VALID,0,VALID,91.464,VALID,0.0169808,VALID,19.1505,VALID,134,VALID,1.1135,
2003-02-07, 03:29:00,VALID,916.364,VALID,0,VALID,91.6623,VALID,0,VALID,19.138,VALID,139,VALID,1.33758,
2003-02-07, 03:30:00,VALID,916.321,VALID,0,VALID,91.6229,VALID,0.0169808,VALID,19.1604,VALID,132,VALID,1.99082,
2003-02-07, 03:31:00,VALID,916.318,VALID,0,VALID,91.3622,VALID,0.0169808,VALID,19.1768,VALID,115,VALID,1.94316,
2003-02-07, 03:32:00,VALID,916.315,VALID,0,VALID,91.3088,VALID,0.0339617,VALID,19.2059,VALID,119,VALID,1.45855,
2003-02-07, 03:33:00,VALID,916.341,VALID,0,VALID,91.3076,VALID,0,VALID,19.1893,VALID,125,VALID,1.21289,
2003-02-07, 03:34:00,VALID,916.352,VALID,0,VALID,91.4462,VALID,0.0169808,VALID,19.1922,VALID,115,VALID,1.48828,